| time (UTC) | temp F | wind direction | speed MPH | gust MPH | rain 1hr in | rain 24hr in | rain mn in | humidity % | barometer mb |
| 20260505164108 | 54 | 117 | 13.0 | 15.0 | 0.00 | 0.13 | 0.13 | 85 | 1006.8 |
| 20260505163601 | 54 | 118 | 14.0 | 19.0 | 0.00 | 0.13 | 0.13 | 84 | 1006.8 |
| 20260505162603 | 55 | 109 | 18.0 | 21.0 | 0.00 | 0.13 | 0.13 | 84 | 1007.0 |
| 20260505162118 | 55 | 102 | 18.0 | 21.0 | 0.00 | 0.13 | 0.13 | 83 | 1007.0 |
| 20260505161615 | 55 | 111 | 19.0 | 23.0 | 0.00 | 0.13 | 0.13 | 81 | 1006.9 |
| 20260505160602 | 54 | 138 | 20.0 | 24.0 | 0.01 | 0.13 | 0.13 | 80 | 1006.6 |
| 20260505153101 | 54 | 103 | 18.0 | 23.0 | 0.08 | 0.13 | 0.12 | 88 | 1006.5 |
| 20260505152602 | 54 | 103 | 15.0 | 22.0 | 0.08 | 0.13 | 0.12 | 88 | 1006.3 |
| 20260505152104 | 54 | 104 | 13.0 | 16.0 | 0.08 | 0.13 | 0.12 | 88 | 1006.6 |
| 20260505151601 | 54 | 104 | 12.0 | 16.0 | 0.08 | 0.13 | 0.12 | 89 | 1006.6 |
| 20260505151101 | 54 | 128 | 11.0 | 15.0 | 0.07 | 0.13 | 0.12 | 88 | 1006.7 |
| 20260505140603 | 55 | 355 | 5.0 | 12.0 | 0.05 | 0.06 | 0.05 | 85 | 1006.3 |
| 20260505123615 | 59 | 311 | 5.0 | 10.0 | 0.00 | 0.01 | 0.01 | 70 | 1006.8 |
| 20260505123102 | 59 | 326 | 6.0 | 10.0 | 0.00 | 0.01 | 0.01 | 70 | 1006.8 |
| 20260505122607 | 59 | 315 | 6.0 | 10.0 | 0.00 | 0.01 | 0.01 | 71 | 1006.8 |
| 20260505122102 | 59 | 338 | 6.0 | 12.0 | 0.00 | 0.01 | 0.01 | 70 | 1006.8 |
| 20260505121602 | 59 | 311 | 6.0 | 12.0 | 0.00 | 0.01 | 0.01 | 71 | 1006.7 |
| 20260505121103 | 59 | 307 | 6.0 | 12.0 | 0.00 | 0.01 | 0.01 | 73 | 1006.7 |
| 20260505120619 | 58 | 305 | 7.0 | 12.0 | 0.00 | 0.01 | 0.01 | 72 | 1006.7 |
| 20260505115602 | 59 | 294 | 9.0 | 14.0 | 0.00 | 0.01 | 0.01 | 73 | 1006.7 |
| 20260505115102 | 59 | 315 | 8.0 | 14.0 | 0.00 | 0.01 | 0.01 | 72 | 1006.7 |
| 20260505114604 | 59 | 302 | 6.0 | 11.0 | 0.00 | 0.01 | 0.01 | 71 | 1006.6 |
| 20260505114103 | 59 | 321 | 6.0 | 10.0 | 0.00 | 0.01 | 0.01 | 70 | 1006.6 |
| 20260505113602 | 59 | 293 | 6.0 | 12.0 | 0.00 | 0.01 | 0.01 | 69 | 1006.7 |
| 20260505113101 | 59 | 334 | 6.0 | 12.0 | 0.00 | 0.01 | 0.01 | 69 | 1006.7 |
| 20260505112603 | 59 | 294 | 5.0 | 10.0 | 0.00 | 0.01 | 0.01 | 68 | 1006.7 |
| 20260505112103 | 59 | 301 | 4.0 | 9.0 | 0.00 | 0.01 | 0.01 | 68 | 1006.6 |
| 20260505111104 | 59 | 317 | 4.0 | 7.0 | 0.00 | 0.01 | 0.01 | 70 | 1006.6 |
| 20260505110602 | 58 | 293 | 4.0 | 8.0 | 0.00 | 0.01 | 0.01 | 71 | 1006.6 |
| 20260505102036 | 57 | 285 | 5.0 | 9.0 | 0.00 | 0.01 | 0.01 | 75 | 1006.4 |
| 20260505101535 | 57 | 309 | 5.0 | 9.0 | 0.00 | 0.01 | 0.01 | 76 | 1006.4 |
| 20260505100532 | 56 | 341 | 4.0 | 7.0 | 0.00 | 0.01 | 0.01 | 80 | 1006.3 |
| 20260505100029 | 55 | 299 | 4.0 | 7.0 | 0.00 | 0.01 | 0.01 | 80 | 1006.3 |
| 20260505095529 | 55 | 307 | 4.0 | 7.0 | 0.00 | 0.01 | 0.01 | 80 | 1006.3 |
| 20260505095031 | 55 | 355 | 4.0 | 7.0 | 0.00 | 0.01 | 0.01 | 81 | 1006.2 |
| 20260505094529 | 55 | 293 | 4.0 | 7.0 | 0.00 | 0.01 | 0.01 | 81 | 1006.2 |
| 20260505094029 | 55 | 282 | 3.0 | 5.0 | 0.00 | 0.01 | 0.01 | 81 | 1006.2 |
| 20260505093528 | 55 | 301 | 2.0 | 5.0 | 0.00 | 0.01 | 0.01 | 82 | 1006.1 |
| 20260505093031 | 54 | 37 | 1.0 | 3.0 | 0.00 | 0.01 | 0.01 | 83 | 1006.1 |
| 20260505092529 | 54 | 27 | 1.0 | 2.0 | 0.00 | 0.01 | 0.01 | 84 | 1006.0 |
| 20260505092029 | 53 | 27 | 1.0 | 2.0 | 0.00 | 0.01 | 0.01 | 85 | 1006.0 |
| 20260505091529 | 53 | 27 | 1.0 | 2.0 | 0.00 | 0.01 | 0.01 | 87 | 1006.0 |
| 20260505091030 | 53 | 108 | 1.0 | 2.0 | 0.00 | 0.01 | 0.01 | 88 | 1006.0 |
| 20260505085527 | 53 | 140 | 1.0 | 4.0 | 0.00 | 0.01 | 0.01 | 88 | 1005.7 |
| 20260505085014 | 53 | 140 | 2.0 | 4.0 | 0.00 | 0.01 | 0.01 | 89 | 1005.7 |
| 20260505084009 | 53 | 110 | 1.0 | 4.0 | 0.00 | 0.01 | 0.01 | 89 | 1005.9 |
| 20260505083504 | 52 | 110 | 1.0 | 2.0 | 0.00 | 0.01 | 0.01 | 90 | 1005.9 |
| 20260505083006 | 52 | 110 | 1.0 | 2.0 | 0.00 | 0.01 | 0.01 | 90 | 1005.7 |
| 20260505082504 | 52 | 110 | 1.0 | 2.0 | 0.00 | 0.01 | 0.01 | 89 | 1005.7 |
| 20260505082004 | 52 | 110 | 1.0 | 2.0 | 0.00 | 0.01 | 0.01 | 90 | 1005.7 |
| 20260505081505 | 52 | 110 | 2.0 | 4.0 | 0.00 | 0.01 | 0.01 | 90 | 1005.9 |
| 20260505080503 | 52 | 110 | 3.0 | 5.0 | 0.00 | 0.01 | 0.01 | 90 | 1006.1 |
| 20260505080004 | 52 | 110 | 3.0 | 5.0 | 0.00 | 0.01 | 0.01 | 91 | 1006.1 |
| 20260505075505 | 52 | 106 | 3.0 | 4.0 | 0.00 | 0.01 | 0.01 | 90 | 1006.3 |
| 20260505075004 | 52 | 95 | 2.0 | 4.0 | 0.00 | 0.01 | 0.01 | 91 | 1006.3 |
| 20260505074503 | 52 | 60 | 1.0 | 2.0 | 0.00 | 0.01 | 0.01 | 91 | 1006.3 |
| 20260505074000 | 52 | 60 | 1.0 | 3.0 | 0.00 | 0.01 | 0.01 | 91 | 1006.3 |
| 20260505073501 | 51 | 60 | 2.0 | 3.0 | 0.00 | 0.01 | 0.01 | 91 | 1006.4 |
| 20260505073002 | 51 | 60 | 2.0 | 3.0 | 0.00 | 0.01 | 0.01 | 92 | 1006.5 |
| 20260505072501 | 51 | 301 | 2.0 | 3.0 | 0.00 | 0.01 | 0.01 | 92 | 1006.7 |
| 20260505072001 | 51 | 301 | 2.0 | 3.0 | 0.00 | 0.01 | 0.01 | 92 | 1006.7 |
| 20260505071516 | 51 | 321 | 2.0 | 3.0 | 0.00 | 0.01 | 0.01 | 92 | 1006.8 |
| 20260505070503 | 51 | 281 | 2.0 | 3.0 | 0.00 | 0.01 | 0.01 | 92 | 1006.7 |
| 20260505065509 | 50 | 266 | 1.0 | 2.0 | 0.01 | 0.01 | 0.01 | 92 | 1006.7 |
| 20260505065018 | 50 | 324 | 1.0 | 3.0 | 0.01 | 0.01 | 0.01 | 92 | 1006.7 |
| 20260505064509 | 50 | 324 | 2.0 | 3.0 | 0.01 | 0.01 | 0.01 | 92 | 1006.8 |
| 20260505064001 | 50 | 307 | 2.0 | 4.0 | 0.01 | 0.01 | 0.01 | 92 | 1007.0 |
| 20260505063018 | 50 | 296 | 3.0 | 4.0 | 0.01 | 0.01 | 0.01 | 92 | 1007.1 |
| 20260505062501 | 50 | 312 | 3.0 | 4.0 | 0.01 | 0.01 | 0.01 | 92 | 1007.0 |
| 20260505061459 | 50 | 305 | 2.0 | 4.0 | 0.01 | 0.01 | 0.01 | 92 | 1007.1 |
| 20260505061002 | 50 | 262 | 2.0 | 3.0 | 0.01 | 0.01 | 0.01 | 92 | 1007.1 |
| 20260505060455 | 50 | 290 | 2.0 | 3.0 | 0.01 | 0.01 | 0.01 | 92 | 1007.1 |
| 20260505055946 | 50 | 293 | 2.0 | 3.0 | 0.01 | 0.01 | 0.00 | 92 | 1007.1 |
| 20260505055447 | 50 | 280 | 2.0 | 4.0 | 0.00 | 0.00 | 0.00 | 92 | 1007.1 |
| 20260505054948 | 50 | 271 | 2.0 | 4.0 | 0.00 | 0.00 | 0.00 | 92 | 1007.1 |
| 20260505054445 | 50 | 278 | 2.0 | 3.0 | 0.00 | 0.00 | 0.00 | 92 | 1007.1 |
| 20260505053936 | 50 | 288 | 2.0 | 3.0 | 0.00 | 0.00 | 0.00 | 92 | 1007.1 |
| 20260505052933 | 50 | 287 | 2.0 | 4.0 | 0.00 | 0.00 | 0.00 | 91 | 1007.1 |
| 20260505052431 | 50 | 282 | 2.0 | 4.0 | 0.00 | 0.00 | 0.00 | 91 | 1007.0 |
| 20260505051929 | 50 | 288 | 2.0 | 3.0 | 0.00 | 0.00 | 0.00 | 91 | 1007.0 |
| 20260505051429 | 50 | 271 | 2.0 | 4.0 | 0.00 | 0.00 | 0.00 | 90 | 1007.0 |
| 20260505050930 | 50 | 280 | 3.0 | 4.0 | 0.00 | 0.00 | 0.00 | 90 | 1007.0 |
| 20260505050429 | 50 | 261 | 2.0 | 4.0 | 0.00 | 0.00 | 0.00 | 90 | 1007.0 |
| 20260505041422 | 49 | 288 | 2.0 | 3.0 | 0.00 | 0.00 | 0.00 | 90 | 1007.0 |
| 20260505040922 | 49 | 290 | 2.0 | 3.0 | 0.00 | 0.00 | 0.00 | 90 | 1006.7 |
| 20260505040410 | 49 | 284 | 2.0 | 4.0 | 0.00 | 0.00 | 0.00 | 90 | 1006.9 |
| 20260505035905 | 49 | 269 | 2.0 | 4.0 | 0.00 | 0.00 | 0.00 | 90 | 1006.9 |
| 20260505034858 | 49 | 261 | 3.0 | 5.0 | 0.00 | 0.00 | 0.00 | 90 | 1006.9 |
| 20260505034350 | 49 | 294 | 3.0 | 4.0 | 0.00 | 0.00 | 0.00 | 90 | 1006.8 |
| 20260505033842 | 49 | 296 | 3.0 | 5.0 | 0.00 | 0.00 | 0.00 | 90 | 1006.9 |
| 20260505033342 | 49 | 297 | 3.0 | 5.0 | 0.00 | 0.00 | 0.00 | 90 | 1007.0 |
| 20260505031848 | 49 | 291 | 3.0 | 4.0 | 0.00 | 0.00 | 0.00 | 90 | 1006.9 |
| 20260505031332 | 49 | 280 | 3.0 | 4.0 | 0.00 | 0.00 | 0.00 | 90 | 1006.9 |
| 20260505030832 | 49 | 257 | 3.0 | 4.0 | 0.00 | 0.00 | 0.00 | 89 | 1006.9 |
| 20260505030331 | 49 | 273 | 3.0 | 5.0 | 0.00 | 0.00 | 0.00 | 89 | 1006.9 |
| 20260505025329 | 50 | 251 | 3.0 | 5.0 | 0.00 | 0.00 | 0.00 | 89 | 1006.9 |
| 20260505024830 | 50 | 297 | 3.0 | 5.0 | 0.00 | 0.00 | 0.00 | 90 | 1007.0 |
| 20260505024329 | 50 | 264 | 3.0 | 5.0 | 0.00 | 0.00 | 0.00 | 90 | 1007.1 |
| 20260505023328 | 50 | 290 | 3.0 | 5.0 | 0.00 | 0.00 | 0.00 | 90 | 1007.1 |
| 20260505022831 | 50 | 274 | 3.0 | 5.0 | 0.00 | 0.00 | 0.00 | 90 | 1007.3 |
| 20260505022331 | 50 | 290 | 2.0 | 5.0 | 0.00 | 0.00 | 0.00 | 90 | 1007.3 |
| 20260505021829 | 50 | 306 | 2.0 | 4.0 | 0.00 | 0.00 | 0.00 | 90 | 1007.3 |
| 20260505020834 | 51 | 286 | 1.0 | 4.0 | 0.00 | 0.00 | 0.00 | 91 | 1007.3 |
| 20260505020325 | 51 | 249 | 1.0 | 2.0 | 0.00 | 0.00 | 0.00 | 91 | 1007.4 |
| 20260505015822 | 51 | 249 | 1.0 | 2.0 | 0.00 | 0.00 | 0.00 | 91 | 1007.4 |
| 20260505015319 | 51 | 249 | 0.0 | 1.0 | 0.00 | 0.00 | 0.00 | 91 | 1007.4 |
| 20260505014817 | 51 | 249 | 0.0 | 1.0 | 0.00 | 0.00 | 0.00 | 91 | 1007.5 |
| 20260505014310 | 50 | 249 | 0.0 | 1.0 | 0.00 | 0.00 | 0.00 | 91 | 1007.5 |
| 20260505013805 | 50 | 249 | 1.0 | 2.0 | 0.00 | 0.00 | 0.00 | 91 | 1007.5 |
| 20260505012304 | 50 | 249 | 2.0 | 4.0 | 0.00 | 0.00 | 0.00 | 91 | 1007.4 |
| 20260505011801 | 50 | 242 | 2.0 | 4.0 | 0.00 | 0.00 | 0.00 | 91 | 1007.5 |
| 20260505011304 | 50 | 197 | 1.0 | 4.0 | 0.00 | 0.00 | 0.00 | 91 | 1007.6 |
| 20260505010800 | 50 | 45 | 1.0 | 3.0 | 0.00 | 0.00 | 0.00 | 91 | 1007.6 |
| 20260505010301 | 50 | 45 | 2.0 | 3.0 | 0.00 | 0.00 | 0.00 | 90 | 1007.6 |
| 20260505005817 | 50 | 42 | 1.0 | 3.0 | 0.00 | 0.00 | 0.00 | 90 | 1007.8 |
| 20260505005303 | 50 | 329 | 1.0 | 2.0 | 0.00 | 0.00 | 0.00 | 90 | 1008.0 |
| 20260505004300 | 50 | 329 | 1.0 | 2.0 | 0.00 | 0.00 | 0.00 | 90 | 1008.1 |
| 20260505003801 | 50 | 329 | 1.0 | 2.0 | 0.00 | 0.00 | 0.00 | 90 | 1008.1 |
| 20260505003304 | 50 | 11 | 1.0 | 3.0 | 0.00 | 0.00 | 0.00 | 90 | 1008.1 |
| 20260505002816 | 50 | 11 | 2.0 | 3.0 | 0.00 | 0.00 | 0.00 | 90 | 1008.2 |
| 20260505002303 | 50 | 345 | 1.0 | 3.0 | 0.00 | 0.00 | 0.00 | 90 | 1008.3 |
| 20260505001802 | 50 | 276 | 1.0 | 2.0 | 0.00 | 0.00 | 0.00 | 90 | 1008.3 |
| 20260505001302 | 50 | 276 | 1.0 | 2.0 | 0.00 | 0.00 | 0.00 | 90 | 1008.6 |
| 20260505000801 | 50 | 276 | 1.0 | 2.0 | 0.00 | 0.00 | 0.00 | 90 | 1008.6 |
| 20260505000302 | 50 | 276 | 2.0 | 3.0 | 0.00 | 0.00 | 0.00 | 90 | 1008.6 |
| 20260504235801 | 50 | 276 | 1.0 | 3.0 | 0.00 | 0.00 | 0.00 | 90 | 1008.6 |
| 20260504234800 | 50 | 282 | 2.0 | 3.0 | 0.00 | 0.00 | 0.00 | 90 | 1008.8 |
| 20260504233747 | 50 | 278 | 2.0 | 4.0 | 0.00 | 0.00 | 0.00 | 90 | 1008.8 |
| 20260504233237 | 50 | 263 | 2.0 | 3.0 | 0.00 | 0.00 | 0.00 | 90 | 1008.9 |
| 20260504231244 | 51 | 290 | 2.0 | 4.0 | 0.00 | 0.00 | 0.00 | 89 | 1009.1 |
| 20260504230730 | 51 | 273 | 2.0 | 4.0 | 0.00 | 0.00 | 0.00 | 89 | 1009.2 |
| 20260504225730 | 51 | 259 | 3.0 | 4.0 | 0.00 | 0.00 | 0.00 | 89 | 1009.3 |
| 20260504225230 | 51 | 271 | 2.0 | 4.0 | 0.00 | 0.00 | 0.00 | 89 | 1009.4 |
| 20260504224729 | 52 | 261 | 2.0 | 4.0 | 0.00 | 0.00 | 0.00 | 89 | 1009.5 |
| 20260504224231 | 52 | 305 | 1.0 | 3.0 | 0.00 | 0.00 | 0.00 | 88 | 1009.5 |
| 20260504223744 | 52 | 305 | 1.0 | 3.0 | 0.00 | 0.00 | 0.00 | 88 | 1009.4 |
| 20260504223229 | 52 | 305 | 1.0 | 3.0 | 0.00 | 0.00 | 0.00 | 88 | 1009.5 |
| 20260504222729 | 52 | 305 | 1.0 | 3.0 | 0.00 | 0.00 | 0.00 | 88 | 1009.5 |
| 20260504222230 | 52 | 276 | 1.0 | 2.0 | 0.00 | 0.00 | 0.00 | 88 | 1009.5 |
| 20260504221730 | 52 | 276 | 1.0 | 2.0 | 0.00 | 0.00 | 0.00 | 88 | 1009.8 |
| 20260504221231 | 53 | 276 | 1.0 | 2.0 | 0.00 | 0.00 | 0.00 | 88 | 1009.7 |
| 20260504220729 | 53 | 276 | 1.0 | 2.0 | 0.00 | 0.00 | 0.00 | 88 | 1009.7 |
| 20260504220516 | 53 | 276 | 1.0 | 2.0 | 0.00 | 0.00 | 0.00 | 87 | 1009.5 |
| 20260504215732 | 53 | 276 | 1.0 | 2.0 | 0.00 | 0.00 | 0.00 | 87 | 1009.7 |
| 20260504215230 | 53 | 276 | 1.0 | 3.0 | 0.00 | 0.00 | 0.00 | 87 | 1009.8 |
| 20260504214230 | 53 | 271 | 1.0 | 3.0 | 0.00 | 0.00 | 0.00 | 87 | 1010.0 |
| 20260504213728 | 53 | 271 | 1.0 | 3.0 | 0.00 | 0.00 | 0.00 | 86 | 1010.0 |
| 20260504213228 | 53 | 271 | 2.0 | 3.0 | 0.00 | 0.00 | 0.00 | 86 | 1010.1 |
| 20260504212709 | 53 | 266 | 2.0 | 3.0 | 0.00 | 0.00 | 0.00 | 86 | 1010.0 |
| 20260504212210 | 53 | 298 | 1.0 | 3.0 | 0.00 | 0.00 | 0.00 | 85 | 1010.1 |
| 20260504211706 | 53 | 298 | 1.0 | 3.0 | 0.00 | 0.00 | 0.00 | 85 | 1010.2 |
| 20260504211204 | 54 | 286 | 1.0 | 3.0 | 0.00 | 0.00 | 0.00 | 85 | 1010.2 |
| 20260504210701 | 54 | 286 | 2.0 | 4.0 | 0.00 | 0.00 | 0.00 | 84 | 1010.2 |
| 20260504210202 | 54 | 276 | 2.0 | 4.0 | 0.00 | 0.00 | 0.00 | 84 | 1010.3 |
| 20260504205702 | 54 | 278 | 2.0 | 4.0 | 0.00 | 0.00 | 0.00 | 84 | 1010.3 |
| 20260504205201 | 54 | 285 | 1.0 | 3.0 | 0.00 | 0.00 | 0.00 | 84 | 1010.4 |
| 20260504204701 | 54 | 253 | 2.0 | 4.0 | 0.00 | 0.00 | 0.00 | 84 | 1010.5 |
| 20260504203703 | 55 | 244 | 2.0 | 5.0 | 0.00 | 0.00 | 0.00 | 84 | 1010.7 |
| 20260504203201 | 55 | 283 | 3.0 | 5.0 | 0.00 | 0.00 | 0.00 | 84 | 1010.6 |
| 20260504202701 | 55 | 292 | 3.0 | 5.0 | 0.00 | 0.00 | 0.00 | 84 | 1010.5 |
| 20260504202216 | 55 | 276 | 3.0 | 5.0 | 0.00 | 0.00 | 0.00 | 84 | 1010.8 |
| 20260504201717 | 55 | 261 | 3.0 | 5.0 | 0.00 | 0.00 | 0.00 | 84 | 1010.8 |
| 20260504201200 | 55 | 292 | 3.0 | 5.0 | 0.00 | 0.00 | 0.00 | 84 | 1010.8 |
| 20260504200702 | 55 | 288 | 3.0 | 6.0 | 0.00 | 0.00 | 0.00 | 84 | 1010.8 |
| 20260504200203 | 55 | 282 | 4.0 | 6.0 | 0.00 | 0.00 | 0.00 | 84 | 1010.7 |
| 20260504195704 | 55 | 279 | 4.0 | 6.0 | 0.00 | 0.00 | 0.00 | 83 | 1010.6 |
| 20260504195201 | 55 | 270 | 5.0 | 6.0 | 0.00 | 0.00 | 0.00 | 83 | 1010.5 |
| 20260504194701 | 55 | 276 | 5.0 | 7.0 | 0.00 | 0.00 | 0.00 | 83 | 1010.6 |
| 20260504194200 | 55 | 278 | 5.0 | 8.0 | 0.00 | 0.00 | 0.00 | 83 | 1010.6 |
| 20260504192701 | 55 | 263 | 4.0 | 7.0 | 0.00 | 0.00 | 0.00 | 82 | 1010.6 |
| 20260504192201 | 55 | 282 | 5.0 | 7.0 | 0.00 | 0.00 | 0.00 | 82 | 1010.7 |
| 20260504191702 | 55 | 284 | 4.0 | 7.0 | 0.00 | 0.00 | 0.00 | 82 | 1010.7 |
| 20260504191207 | 55 | 278 | 4.0 | 6.0 | 0.00 | 0.00 | 0.00 | 81 | 1010.8 |
| 20260504190705 | 56 | 249 | 4.0 | 7.0 | 0.00 | 0.00 | 0.00 | 80 | 1010.7 |
| 20260504185704 | 56 | 280 | 4.0 | 7.0 | 0.00 | 0.00 | 0.00 | 79 | 1010.6 |
| 20260504184702 | 56 | 305 | 4.0 | 6.0 | 0.00 | 0.00 | 0.00 | 78 | 1010.7 |
| 20260504184202 | 56 | 288 | 4.0 | 6.0 | 0.00 | 0.00 | 0.00 | 78 | 1010.8 |
| 20260504183704 | 56 | 307 | 4.0 | 7.0 | 0.00 | 0.00 | 0.00 | 78 | 1010.8 |
| 20260504183203 | 56 | 314 | 4.0 | 7.0 | 0.00 | 0.00 | 0.00 | 78 | 1010.9 |
| 20260504182707 | 56 | 324 | 2.0 | 6.0 | 0.00 | 0.00 | 0.00 | 78 | 1010.8 |
| 20260504181203 | 56 | 334 | 3.0 | 6.0 | 0.00 | 0.00 | 0.00 | 78 | 1010.8 |
| 20260504180702 | 56 | 318 | 3.0 | 5.0 | 0.00 | 0.00 | 0.00 | 78 | 1010.8 |
| 20260504180202 | 56 | 324 | 3.0 | 7.0 | 0.00 | 0.00 | 0.00 | 78 | 1010.8 |
| 20260504175702 | 56 | 339 | 4.0 | 7.0 | 0.00 | 0.00 | 0.00 | 78 | 1010.9 |
| 20260504175200 | 56 | 300 | 4.0 | 6.0 | 0.00 | 0.00 | 0.00 | 78 | 1010.9 |
| 20260504174701 | 56 | 292 | 4.0 | 6.0 | 0.00 | 0.00 | 0.00 | 78 | 1010.9 |
| 20260504174201 | 56 | 327 | 4.0 | 8.0 | 0.00 | 0.00 | 0.00 | 78 | 1011.0 |
| 20260504173200 | 56 | 28 | 3.0 | 7.0 | 0.00 | 0.00 | 0.00 | 78 | 1010.9 |
| 20260504172700 | 56 | 336 | 4.0 | 8.0 | 0.00 | 0.00 | 0.00 | 79 | 1011.0 |
| 20260504172201 | 56 | 341 | 6.0 | 10.0 | 0.00 | 0.00 | 0.00 | 79 | 1011.0 |
| 20260504171704 | 56 | 11 | 6.0 | 10.0 | 0.00 | 0.00 | 0.00 | 79 | 1011.0 |
| 20260504171202 | 56 | 307 | 5.0 | 9.0 | 0.00 | 0.00 | 0.00 | 78 | 1011.0 |
| 20260504170718 | 56 | 316 | 5.0 | 9.0 | 0.00 | 0.00 | 0.00 | 78 | 1011.1 |
| 20260504170217 | 56 | 321 | 4.0 | 9.0 | 0.00 | 0.00 | 0.00 | 78 | 1011.2 |